FW3854 Weather Reports


Display with metric or nautical units.
time (UTC)temp
F
wind
direction
speed
MPH
gust
MPH
rain 1hr
in
rain 24hr
in
rain mn
in
humidity
%
barometer
mb
20260509224031 66 150 0.0 0.0 0.00 0.00 0.00 59 1004.8
20260509223510 66 150 0.0 0.0 0.00 0.00 0.00 61 1005.0
20260509223024 66 150 0.0 0.0 0.00 0.00 0.00 62 1005.1
20260509222501 66 150 0.0 0.0 0.00 0.00 0.00 61 1005.2
20260509222044 67 149 0.0 0.0 0.00 0.00 0.00 60 1005.1
20260509221626 67 149 0.0 0.0 0.00 0.00 0.00 59 1005.1
20260509221039 67 149 0.0 0.0 0.00 0.00 0.00 59 1005.2
20260509220518 67 149 0.0 0.0 0.00 0.00 0.00 58 1005.2
20260509220041 67 149 0.0 0.0 0.00 0.00 0.00 57 1005.1
20260509215517 68 149 0.0 0.0 0.00 0.00 0.00 57 1005.1
20260509215058 68 151 0.0 0.0 0.00 0.00 0.00 58 1005.1
20260509214507 68 159 0.0 0.0 0.00 0.00 0.00 58 1005.0
20260509214049 68 159 0.0 0.0 0.00 0.00 0.00 58 1005.0
20260509213528 68 37 0.0 0.0 0.00 0.00 0.00 58 1004.9
20260509213046 68 37 0.0 3.0 0.00 0.00 0.00 57 1004.8
20260509212524 68 37 0.0 3.0 0.00 0.00 0.00 57 1004.7
20260509212004 69 37 1.0 3.0 0.00 0.00 0.00 56 1004.7
20260509211520 69 36 1.0 4.0 0.00 0.00 0.00 55 1004.9
20260509211101 69 36 2.0 4.0 0.00 0.00 0.00 54 1004.8
20260509210540 70 43 2.0 4.0 0.00 0.00 0.00 54 1004.6
20260509210059 70 43 1.0 4.0 0.00 0.00 0.00 54 1004.5
20260509205534 70 31 2.0 3.0 0.00 0.00 0.00 53 1004.4
20260509205012 70 36 0.0 2.0 0.00 0.00 0.00 53 1004.4
20260509204529 70 36 0.0 0.0 0.00 0.00 0.00 53 1004.4
20260509204007 70 36 0.0 3.0 0.00 0.00 0.00 53 1004.4
20260509203552 70 36 0.0 3.0 0.00 0.00 0.00 53 1004.5
20260509203055 70 37 0.0 3.0 0.00 0.00 0.00 52 1004.4
20260509202536 70 37 1.0 3.0 0.00 0.00 0.00 52 1004.4
20260509202011 69 36 1.0 3.0 0.00 0.00 0.00 55 1004.4
20260509201527 69 343 0.0 2.0 0.00 0.00 0.00 53 1004.3
20260509201004 68 341 0.0 0.0 0.00 0.00 0.00 53 1004.4
20260509200548 68 341 0.0 0.0 0.00 0.00 0.00 52 1004.4
20260509200108 68 341 0.0 0.0 0.00 0.00 0.00 52 1004.4
20260509195533 68 341 0.0 0.0 0.00 0.00 0.00 52 1004.4
20260509195011 69 341 0.0 0.0 0.00 0.00 0.00 51 1004.4
20260509194516 69 341 0.0 0.0 0.00 0.00 0.00 51 1004.4
20260509194058 69 341 0.0 0.0 0.00 0.00 0.00 51 1004.4
20260509193537 69 341 0.0 1.0 0.00 0.00 0.00 51 1004.4
20260509193042 69 341 0.0 2.0 0.00 0.00 0.00 51 1004.5
20260509192519 69 341 0.0 2.0 0.00 0.00 0.00 51 1004.5
20260509192102 69 341 0.0 2.0 0.00 0.00 0.00 52 1004.5
20260509191605 68 321 0.0 1.0 0.00 0.00 0.00 53 1004.7
20260509191042 68 321 0.0 2.0 0.00 0.00 0.00 52 1004.7
20260509190520 68 323 0.0 4.0 0.00 0.00 0.00 53 1004.8
20260509190026 68 49 0.0 3.0 0.00 0.00 0.00 53 1004.8
20260509185502 67 34 0.0 4.0 0.00 0.00 0.00 53 1004.9
20260509185045 67 298 0.0 4.0 0.00 0.00 0.00 55 1005.0
20260509184551 66 154 0.0 0.0 0.00 0.00 0.00 54 1005.1
20260509184029 66 61 0.0 0.0 0.00 0.00 0.00 55 1005.2
20260509183507 66 61 0.0 0.0 0.00 0.00 0.00 56 1005.4
20260509183024 66 122 0.0 0.0 0.00 0.00 0.00 52 1005.2
20260509182502 65 20 0.0 0.0 0.00 0.00 0.00 53 1005.4
20260509182044 65 268 0.0 0.0 0.00 0.00 0.00 55 1005.5
20260509181551 65 268 0.0 0.0 0.00 0.00 0.00 54 1005.5
20260509181027 65 268 0.0 0.0 0.00 0.00 0.00 55 1005.7
20260509180508 64 268 0.0 0.0 0.00 0.00 0.00 56 1005.7
20260509180021 64 268 0.0 0.0 0.00 0.00 0.00 56 1005.8
20260509175604 64 268 0.0 0.0 0.00 0.00 0.00 56 1005.7
20260509175042 64 268 0.0 0.0 0.00 0.00 0.00 56 1005.7
20260509174551 63 268 0.0 0.0 0.00 0.00 0.00 56 1005.8
20260509174027 63 268 0.0 0.0 0.00 0.00 0.00 56 1005.9
20260509173504 63 268 0.0 0.0 0.00 0.00 0.00 57 1006.1
20260509173020 62 137 0.0 0.0 0.00 0.00 0.00 57 1006.2
20260509172602 62 137 0.0 0.0 0.00 0.00 0.00 58 1006.2
20260509172041 62 143 0.0 0.0 0.00 0.00 0.00 58 1006.3
20260509171547 62 143 0.0 0.0 0.00 0.00 0.00 58 1006.3
20260509171026 62 143 0.0 0.0 0.00 0.00 0.00 58 1006.4
20260509170503 62 41 0.0 0.0 0.00 0.00 0.00 60 1006.4
20260509170009 61 52 0.0 0.0 0.00 0.00 0.00 61 1006.5
20260509165551 61 52 0.0 0.0 0.00 0.00 0.00 60 1006.4
20260509165028 61 50 0.0 0.0 0.00 0.00 0.00 59 1006.5
20260509164534 61 50 0.0 0.0 0.00 0.00 0.00 61 1006.6
20260509164011 61 50 0.0 0.0 0.00 0.00 0.00 61 1006.5
20260509163553 61 50 0.0 0.0 0.00 0.00 0.00 60 1006.7
20260509163103 61 50 0.0 0.0 0.00 0.00 0.00 62 1006.7
20260509162536 61 50 0.0 0.0 0.00 0.00 0.00 61 1006.9
20260509162015 61 50 0.0 0.0 0.00 0.00 0.00 61 1006.9
20260509161527 61 50 0.0 0.0 0.00 0.00 0.00 61 1006.9
20260509161103 61 50 0.0 0.0 0.00 0.00 0.00 61 1006.9
20260509160538 61 50 0.0 0.0 0.00 0.00 0.00 60 1007.0
20260509160045 61 50 0.0 0.0 0.00 0.00 0.00 59 1007.0
20260509155523 61 50 0.0 0.0 0.00 0.00 0.00 60 1007.0
20260509155002 61 50 0.0 0.0 0.00 0.00 0.00 59 1007.0
20260509154508 61 50 0.0 0.0 0.00 0.00 0.00 59 1007.0
20260509154050 61 50 0.0 0.0 0.00 0.00 0.00 58 1006.9
20260509153528 61 50 0.0 0.0 0.00 0.00 0.00 59 1006.9
20260509153046 62 50 0.0 0.0 0.00 0.00 0.00 57 1006.8
20260509152512 62 54 0.0 0.0 0.00 0.00 0.00 61 1006.8
20260509152056 62 54 0.0 0.0 0.00 0.00 0.00 60 1006.7
20260509151601 62 54 0.0 0.0 0.00 0.00 0.00 60 1006.8
20260509151042 61 54 0.0 0.0 0.00 0.00 0.00 60 1006.8
20260509150518 61 54 0.0 0.0 0.00 0.00 0.00 59 1006.8
20260509150040 61 54 0.0 0.0 0.00 0.00 0.00 60 1006.8
20260509145515 61 54 0.0 0.0 0.00 0.00 0.00 59 1006.9
20260509145054 61 54 0.0 0.0 0.00 0.00 0.00 59 1006.9
20260509144558 61 54 0.0 0.0 0.00 0.00 0.00 59 1006.9
20260509144037 61 54 0.0 0.0 0.00 0.00 0.00 59 1007.0
20260509143515 61 73 0.0 0.0 0.00 0.00 0.00 59 1006.8
20260509143036 61 73 0.0 0.0 0.00 0.00 0.00 59 1006.9
20260509142510 60 73 0.0 0.0 0.00 0.00 0.00 59 1006.9
20260509142053 60 73 0.0 0.0 0.00 0.00 0.00 62 1006.8
20260509141601 59 73 0.0 0.0 0.00 0.00 0.00 62 1006.9
20260509141037 59 73 0.0 0.0 0.00 0.00 0.00 61 1006.9
20260509140515 59 73 0.0 0.0 0.00 0.00 0.00 61 1007.0
20260509140035 59 91 0.0 0.0 0.00 0.00 0.00 64 1007.1
20260509135510 58 91 0.0 0.0 0.00 0.00 0.00 62 1007.1
20260509135052 58 91 0.0 0.0 0.00 0.00 0.00 62 1007.2
20260509134558 58 91 0.0 1.0 0.00 0.00 0.00 62 1007.3
20260509134037 58 93 0.0 0.0 0.00 0.00 0.00 62 1007.4
20260509133515 57 94 0.0 0.0 0.00 0.00 0.00 64 1007.5
20260509133033 57 94 0.0 0.0 0.00 0.00 0.00 63 1007.5
20260509132511 56 94 0.0 0.0 0.00 0.00 0.00 65 1007.4
20260509132053 56 94 0.0 0.0 0.00 0.00 0.00 66 1007.3
20260509131559 56 94 0.0 0.0 0.00 0.00 0.00 67 1007.2
20260509131037 56 94 0.0 0.0 0.00 0.00 0.00 68 1007.2
20260509130515 56 94 0.0 0.0 0.00 0.00 0.00 68 1007.1
20260509130033 56 94 0.0 0.0 0.00 0.00 0.00 68 1007.1
20260509125518 56 94 0.0 0.0 0.00 0.00 0.00 68 1007.1
20260509125053 55 94 0.0 0.0 0.00 0.00 0.00 69 1007.1
20260509124557 55 94 0.0 0.0 0.00 0.00 0.00 69 1006.9
20260509124035 55 94 0.0 0.0 0.00 0.00 0.00 70 1007.0
20260509123514 55 94 0.0 0.0 0.00 0.00 0.00 70 1007.1
20260509123029 55 94 0.0 0.0 0.00 0.00 0.00 73 1007.0
20260509122510 55 94 0.0 0.0 0.00 0.00 0.00 72 1007.1
20260509122053 55 94 0.0 0.0 0.00 0.00 0.00 68 1007.2
20260509121601 55 94 0.0 0.0 0.00 0.00 0.00 70 1007.3
20260509121040 55 94 0.0 0.0 0.00 0.00 0.00 69 1007.4
20260509120519 54 94 0.0 0.0 0.00 0.00 0.00 70 1007.4
20260509120036 54 94 0.0 0.0 0.00 0.00 0.00 70 1007.3
20260509115509 54 94 0.0 0.0 0.00 0.00 0.00 68 1007.2
20260509115052 54 94 0.0 0.0 0.00 0.00 0.00 69 1007.2
20260509114558 54 93 0.0 0.0 0.00 0.00 0.00 68 1007.3
20260509114036 54 93 0.0 0.0 0.00 0.00 0.00 67 1007.3
20260509113515 54 93 0.0 0.0 0.00 0.00 0.00 68 1007.2
20260509113021 54 93 0.0 0.0 0.00 0.00 0.00 68 1007.2
20260509112502 54 93 0.0 0.0 0.00 0.00 0.00 65 1007.2
20260509112043 54 93 0.0 0.0 0.00 0.00 0.00 66 1007.2
20260509111551 54 93 0.0 0.0 0.00 0.00 0.00 67 1007.2
20260509111027 55 93 0.0 0.0 0.00 0.00 0.00 65 1007.1
20260509110504 55 93 0.0 0.0 0.00 0.00 0.00 64 1007.0
20260509110009 55 93 0.0 0.0 0.00 0.00 0.00 64 1006.9
20260509105551 55 93 0.0 0.0 0.00 0.00 0.00 63 1006.8
20260509105029 55 93 0.0 0.0 0.00 0.00 0.00 63 1006.7
20260509104534 56 93 0.0 0.0 0.00 0.00 0.00 63 1006.8
20260509104012 56 93 0.0 0.0 0.00 0.00 0.00 61 1006.8
20260509103554 56 93 0.0 0.0 0.00 0.00 0.00 62 1006.8
20260509103104 56 93 0.0 0.0 0.00 0.00 0.00 60 1006.8
20260509102536 56 93 0.0 0.0 0.00 0.00 0.00 59 1006.9
20260509102015 56 93 0.0 0.0 0.00 0.00 0.00 59 1006.8
20260509101533 56 93 0.0 0.0 0.00 0.00 0.00 59 1006.8
20260509101012 56 93 0.0 1.0 0.00 0.00 0.00 59 1006.7
20260509100551 56 93 0.0 0.0 0.00 0.00 0.00 60 1006.7
20260509100100 56 93 0.0 0.0 0.00 0.00 0.00 58 1006.7
20260509095534 56 93 0.0 0.0 0.00 0.00 0.00 58 1006.7
20260509095013 56 93 0.0 0.0 0.00 0.00 0.00 58 1006.7
20260509094527 57 93 0.0 2.0 0.00 0.00 0.00 58 1006.7
20260509094005 57 93 1.0 2.0 0.00 0.00 0.00 57 1006.8
20260509093548 57 93 0.0 1.0 0.00 0.00 0.00 56 1006.7
20260509093053 58 93 0.0 1.0 0.00 0.00 0.00 55 1006.8
20260509092530 58 93 0.0 2.0 0.00 0.00 0.00 54 1006.8
20260509092012 58 93 0.0 1.0 0.00 0.00 0.00 54 1007.0
20260509091527 58 93 0.0 1.0 0.00 0.00 0.00 53 1006.8
20260509091005 58 93 0.0 1.0 0.00 0.00 0.00 53 1006.8
20260509090548 58 77 0.0 3.0 0.00 0.00 0.00 53 1006.9
20260509090056 58 63 0.0 3.0 0.00 0.00 0.00 53 1006.8
20260509085531 58 245 0.0 3.0 0.00 0.00 0.00 53 1006.9
20260509085011 58 199 0.0 2.0 0.00 0.00 0.00 54 1007.0
20260509084531 58 199 0.0 3.0 0.00 0.00 0.00 54 1006.9
20260509084004 57 199 0.0 3.0 0.00 0.00 0.00 55 1007.0
20260509083552 57 171 0.0 1.0 0.00 0.00 0.00 55 1007.2
20260509083059 57 207 0.0 2.0 0.00 0.00 0.00 55 1007.2
20260509082532 57 207 0.0 2.0 0.00 0.00 0.00 55 1007.1
20260509082012 57 207 0.0 2.0 0.00 0.00 0.00 55 1007.1
20260509081530 58 207 0.0 2.0 0.00 0.00 0.00 55 1007.0
20260509081011 58 207 0.0 2.0 0.00 0.00 0.00 54 1007.1
20260509080553 58 207 0.0 1.0 0.00 0.00 0.00 54 1007.1
20260509080059 58 207 0.0 3.0 0.00 0.00 0.00 54 1007.1
20260509075533 58 207 1.0 3.0 0.00 0.00 0.00 54 1007.2
20260509075012 58 207 1.0 3.0 0.00 0.00 0.00 54 1007.2
20260509074518 58 207 1.0 3.0 0.00 0.00 0.00 54 1007.3
20260509074057 58 207 0.0 3.0 0.00 0.00 0.00 54 1007.2
20260509073535 58 207 0.0 3.0 0.00 0.00 0.00 54 1007.3
20260509073042 58 207 0.0 2.0 0.00 0.00 0.00 54 1007.3
20260509072519 58 207 0.0 4.0 0.00 0.00 0.00 54 1007.4
20260509072101 58 207 0.0 4.0 0.00 0.00 0.00 54 1007.4
20260509071504 58 207 1.0 4.0 0.00 0.00 0.00 54 1007.4
20260509071045 58 207 1.0 4.0 0.00 0.00 0.00 54 1007.4
20260509070524 58 202 1.0 3.0 0.00 0.00 0.00 54 1007.4
20260509070028 58 201 0.0 3.0 0.00 0.00 0.00 54 1007.4
20260509065507 58 201 1.0 3.0 0.00 0.00 0.00 54 1007.3
20260509065048 58 201 0.0 3.0 0.00 0.00 0.00 54 1007.4
20260509064558 58 201 0.0 3.0 0.00 0.00 0.00 54 1007.4
20260509064037 58 201 0.0 3.0 0.00 0.00 0.00 54 1007.4
20260509063516 58 210 0.0 3.0 0.00 0.00 0.00 54 1007.5
20260509063030 58 207 1.0 4.0 0.00 0.00 0.00 54 1007.6
20260509062506 58 207 1.0 4.0 0.00 0.00 0.00 54 1007.6
20260509062048 58 201 1.0 3.0 0.00 0.00 0.00 54 1007.6
20260509061601 58 200 0.0 3.0 0.00 0.00 0.00 53 1007.6
20260509061033 58 200 0.0 3.0 0.00 0.00 0.00 53 1007.6
20260509060512 58 200 0.0 3.0 0.00 0.00 0.00 54 1007.6
20260509060036 58 200 0.0 2.0 0.00 0.00 0.00 53 1007.8
20260509055508 58 200 0.0 2.0 0.00 0.00 0.00 53 1007.7
20260509055049 58 200 0.0 2.0 0.00 0.00 0.00 53 1007.9
20260509054502 59 200 0.0 2.0 0.00 0.00 0.00 53 1007.9
20260509054045 59 200 0.0 2.0 0.00 0.00 0.00 52 1007.9
20260509053524 59 200 0.0 1.0 0.00 0.00 0.00 52 1007.9
20260509053044 59 200 0.0 2.0 0.00 0.00 0.00 51 1007.9
20260509052520 60 200 0.0 2.0 0.00 0.00 0.00 51 1008.0
20260509052103 60 199 0.0 3.0 0.00 0.00 0.00 50 1007.9
20260509051516 60 199 1.0 4.0 0.00 0.00 0.00 50 1008.0
20260509051059 60 211 1.0 4.0 0.00 0.00 0.00 50 1008.1
20260509050538 60 210 1.0 4.0 0.00 0.00 0.00 50 1008.0
20260509050055 61 196 0.0 4.0 0.00 0.00 0.00 50 1008.0
20260509045533 61 201 1.0 6.0 0.00 0.00 0.00 49 1008.0
20260509045009 61 196 2.0 6.0 0.00 0.00 0.00 49 1008.0
20260509044527 61 159 3.0 6.0 0.00 0.00 0.00 50 1007.9
20260509044005 60 219 3.0 6.0 0.00 0.00 0.00 50 1008.0
20260509043546 60 216 2.0 6.0 0.00 0.00 0.00 52 1008.1
20260509043103 59 204 1.0 3.0 0.00 0.00 0.00 52 1008.0
20260509042542 59 197 0.0 3.0 0.00 0.00 0.00 52 1008.0
20260509042024 58 207 1.0 3.0 0.00 0.00 0.00 53 1008.0
20260509041538 58 209 1.0 3.0 0.00 0.00 0.00 54 1008.0
20260509041015 57 235 1.0 2.0 0.00 0.00 0.00 56 1008.0
20260509040558 56 249 0.0 1.0 0.00 0.00 0.00 59 1008.1
20260509040011 56 249 0.0 0.0 0.00 0.00 0.00 60 1008.0
20260509035553 56 249 0.0 0.0 0.00 0.00 0.00 60 1008.0
20260509035033 56 249 0.0 2.0 0.00 0.00 0.00 62 1008.1
20260509034552 57 249 1.0 2.0 0.00 0.00 0.00 63 1008.1
20260509034031 57 274 0.0 0.0 0.00 0.00 0.00 59 1008.0
20260509033507 56 274 0.0 0.0 0.00 0.00 0.00 59 1008.0
20260509033025 56 274 0.0 0.0 0.00 0.00 0.00 60 1008.1
20260509032508 56 274 0.0 1.0 0.00 0.00 0.00 61 1008.0
20260509032046 56 274 0.0 2.0 0.00 0.00 0.00 60 1008.2
20260509031624 56 293 0.0 2.0 0.00 0.00 0.00 64 1008.2
20260509031042 57 293 0.0 0.0 0.00 0.00 0.00 62 1008.2
20260509030523 58 293 0.0 0.0 0.00 0.00 0.00 61 1008.2
20260509030040 58 293 0.0 0.0 0.00 0.00 0.00 57 1008.0
20260509025516 58 293 0.0 0.0 0.00 0.00 0.00 57 1008.1
20260509025059 58 293 0.0 0.0 0.00 0.00 0.00 57 1008.0
20260509024520 58 293 0.0 0.0 0.00 0.00 0.00 57 1008.1
20260509024055 58 293 0.0 0.0 0.00 0.00 0.00 55 1008.1
20260509023535 58 293 0.0 1.0 0.00 0.00 0.00 55 1008.1
20260509023054 58 293 0.0 1.0 0.00 0.00 0.00 55 1008.3
20260509022527 58 293 0.0 0.0 0.00 0.00 0.00 55 1008.2
20260509022007 58 293 0.0 0.0 0.00 0.00 0.00 57 1008.1
20260509021523 59 293 0.0 0.0 0.00 0.00 0.00 54 1008.1
20260509021001 59 293 0.0 0.0 0.00 0.00 0.00 54 1008.0
20260509020544 59 293 0.0 0.0 0.00 0.00 0.00 54 1007.9
20260509020049 59 293 0.0 0.0 0.00 0.00 0.00 54 1007.8
20260509015528 59 293 0.0 0.0 0.00 0.00 0.00 53 1007.9
20260509015006 59 293 0.0 0.0 0.00 0.00 0.00 54 1007.9
20260509014522 59 293 0.0 0.0 0.00 0.00 0.00 53 1007.8
20260509014003 59 293 0.0 0.0 0.00 0.00 0.00 52 1007.7
20260509013542 59 293 0.0 0.0 0.00 0.00 0.00 52 1007.7
20260509013049 59 293 0.0 0.0 0.00 0.00 0.00 52 1007.8
20260509012527 59 293 0.0 0.0 0.00 0.00 0.00 51 1007.7
20260509012006 59 293 0.0 0.0 0.00 0.00 0.00 52 1007.8
20260509011512 60 293 0.0 0.0 0.00 0.00 0.00 51 1007.8
20260509011053 60 293 0.0 0.0 0.00 0.00 0.00 51 1007.7
20260509010531 61 293 0.0 0.0 0.00 0.00 0.00 48 1007.7
20260509010040 61 293 0.0 0.0 0.00 0.00 0.00 50 1007.7
20260509005517 62 293 0.0 0.0 0.00 0.00 0.00 46 1007.7
20260509005058 62 293 0.0 0.0 0.00 0.00 0.00 46 1007.7
20260509004605 62 293 0.0 1.0 0.00 0.00 0.00 46 1007.7
20260509004041 63 293 0.0 1.0 0.00 0.00 0.00 45 1007.6
20260509003520 63 293 0.0 2.0 0.00 0.00 0.00 46 1007.6
20260509003025 64 293 1.0 3.0 0.00 0.00 0.00 43 1007.6
20260509002502 64 293 1.0 5.0 0.00 0.00 0.00 43 1007.6
20260509002045 64 291 2.0 5.0 0.00 0.00 0.00 41 1007.6
20260509001551 64 284 1.0 4.0 0.00 0.00 0.00 43 1007.7
20260509001028 65 284 2.0 4.0 0.00 0.00 0.00 42 1007.6
20260509000507 65 281 2.0 4.0 0.00 0.00 0.00 41 1007.6
20260509000024 65 279 2.0 4.0 0.00 0.00 0.00 41 1007.5
20260508235502 65 272 2.0 3.0 0.00 0.00 0.00 41 1007.4
20260508235045 65 280 2.0 3.0 0.00 0.00 0.00 40 1007.4
20260508234548 65 278 2.0 3.0 0.00 0.00 0.00 41 1007.4
20260508234028 65 278 2.0 3.0 0.00 0.00 0.00 40 1007.3
20260508233507 66 275 1.0 2.0 0.00 0.00 0.00 40 1007.2
20260508233023 67 275 0.0 3.0 0.00 0.00 0.00 38 1007.1
20260508232501 67 275 2.0 4.0 0.00 0.00 0.00 37 1007.1
20260508232043 68 297 1.0 4.0 0.00 0.00 0.00 39 1007.1
20260508231551 68 251 1.0 2.0 0.00 0.00 0.00 40 1007.1
20260508231028 68 252 0.0 3.0 0.00 0.00 0.00 39 1007.0
20260508230507 68 216 1.0 4.0 0.00 0.00 0.00 36 1007.0
20260508230021 69 271 2.0 4.0 0.00 0.00 0.00 36 1007.1
20260508225603 69 281 1.0 4.0 0.00 0.00 0.00 38 1007.2
20260508225042 69 297 1.0 4.0 0.00 0.00 0.00 36 1007.2
20260508224559 69 268 1.0 3.0 0.00 0.00 0.00 36 1007.2